Dublin, Ireland

12:47 PM IST on June 19, 2018 (GMT +0100)
Dublin International

Weather History for EIDW - December, 2017

Change the Weather History Date:

Thursday, December 7, 2017

  Actual Average Record
Temperature  
Mean Temperature 38 °F -  
Max Temperature 43 °F 47 °F 59 °F (2016)
Min Temperature 33 °F 38 °F 23 °F (2010)
Degree Days  
Heating Degree Days 27    
Moisture  
Dew Point 37 °F    
Average Humidity 82    
Maximum Humidity 100    
Minimum Humidity 66    
Precipitation  
Precipitation 0.01 in 0.10 in - ()
Sea Level Pressure  
Sea Level Pressure 29.78 in    
Wind  
Wind Speed 19 mph ()    
Max Wind Speed 27 mph    
Max Gust Speed 38 mph    
Visibility 9.1 miles    
Events Rain , Snow    
Averages and records for this station are not official NWS values.
T = Trace of Precipitation, MM = Missing Value Source: Averaged Metar Reports

Daily Weather History Graph

Daily Weather History Graph

Search for Another Location

Airport or City:

Astronomy

Dec. 07, 2017 Rise Set
Actual Time 8:26 AM GMT 4:06 PM GMT
Civil Twilight 7:43 AM GMT 4:49 PM GMT
Nautical Twilight 6:58 AM GMT 5:33 PM GMT
Astronomical Twilight 6:16 AM GMT 6:16 PM GMT
Moon 8:53 PM GMT (12/7) 11:41 AM GMT (12/7)
Length of Visible Light 9h 05m
Length of Day
7h 40m
Waning Gibbous, 80% of the Moon is Illuminated
Dec 7
Waning Gibbous
Dec 10
Last Quarter
Dec 18
New
Dec 26
First Quarter
Jan 2
Full

Hourly Weather History & Observations

Time (GMT) Temp. Windchill Dew Point Humidity Pressure Visibility Wind Dir Wind Speed Gust Speed Precip Events Conditions
12:00 AM 56 °F - 53 °F 84% 29.57 in 12 mi SSW 22.4 mph - -   Partly Cloudy
12:00 AM 55.4 °F - 51.8 °F 88% 29.56 in 6.2 mi SSW 21.9 mph 35.7 mph N/A   Mostly Cloudy
12:30 AM 55.4 °F - 51.8 °F 88% 29.53 in 6.2 mi SSW 21.9 mph - N/A   Mostly Cloudy
1:00 AM 57.2 °F - 51.8 °F 82% 29.53 in 6.2 mi SW 19.6 mph - N/A   Mostly Cloudy
1:30 AM 55.4 °F - 51.8 °F 88% 29.53 in 6.2 mi SW 21.9 mph 33.4 mph N/A Rain Light Rain
2:00 AM 55 °F - 53 °F 90% 29.54 in 9 mi SW 20.1 mph - - Rain Rain
2:00 AM 55.4 °F - 53.6 °F 94% 29.53 in 6.2 mi SW 20.7 mph - N/A Rain Rain
2:30 AM 53.6 °F - 53.6 °F 100% 29.53 in 6.2 mi SW 17.3 mph - N/A Rain Rain
3:00 AM 54 °F - 53 °F 95% 29.53 in 9 mi SW 15.7 mph - - Rain Light Rain
3:00 AM 53.6 °F - 53.6 °F 100% 29.50 in 6.2 mi SW 15.0 mph - N/A Rain Light Rain
3:30 AM 53.6 °F - 53.6 °F 100% 29.53 in 5.0 mi WSW 18.4 mph - N/A Rain Light Rain
4:00 AM 47 °F - 44 °F 84% 29.60 in 11 mi NW 26.8 mph - - Rain Light Rain
4:00 AM 46.4 °F 37.9 °F 44.6 °F 93% 29.59 in 6.2 mi NW 25.3 mph 36.8 mph N/A Rain Light Rain
4:30 AM 46.4 °F 37.7 °F 42.8 °F 87% 29.62 in 6.2 mi NW 26.5 mph 38.0 mph N/A   Mostly Cloudy
5:00 AM 45 °F - 40 °F 76% 29.66 in 12 mi WNW 15.7 mph - - Rain Light Rain
5:00 AM 44.6 °F 37.4 °F 41.0 °F 87% 29.65 in 6.2 mi WNW 16.1 mph - N/A   Mostly Cloudy
5:30 AM 42.8 °F 34.8 °F 37.4 °F 81% 29.65 in 6.2 mi WNW 17.3 mph - N/A   Mostly Cloudy
6:00 AM 41 °F - 35 °F 73% 29.70 in 19 mi West 15.7 mph - -   Partly Cloudy
6:00 AM 41.0 °F 33.1 °F 35.6 °F 81% 29.68 in 6.2 mi West 15.0 mph - N/A   Partly Cloudy
6:30 AM 41.0 °F 32.8 °F 35.6 °F 81% 29.68 in 6.2 mi WSW 16.1 mph - N/A   Mostly Cloudy
7:00 AM 41 °F - 35 °F 72% 29.72 in 19 mi West 17.9 mph - -   Mostly Cloudy
7:00 AM 41.0 °F 31.9 °F 35.6 °F 81% 29.71 in 6.2 mi West 19.6 mph - N/A   Mostly Cloudy
7:30 AM 41.0 °F 32.5 °F 35.6 °F 81% 29.71 in 6.2 mi WSW 17.3 mph - N/A   Scattered Clouds
8:00 AM 40 °F - 36 °F 78% 29.75 in 16 mi West 20.1 mph - -   Partly Cloudy
8:00 AM 41.0 °F 31.6 °F 35.6 °F 81% 29.71 in 6.2 mi West 20.7 mph - N/A   Mostly Cloudy
8:30 AM 41.0 °F 31.6 °F 35.6 °F 81% 29.74 in 6.2 mi West 20.7 mph - N/A   Mostly Cloudy
9:00 AM 40 °F - 35 °F 78% 29.81 in 16 mi West 17.9 mph - -   Scattered Clouds
9:00 AM 41.0 °F 32.2 °F 35.6 °F 81% 29.77 in 6.2 mi West 18.4 mph - N/A   Mostly Cloudy
9:30 AM 41.0 °F 31.6 °F 35.6 °F 81% 29.80 in 6.2 mi West 20.7 mph - N/A   Mostly Cloudy
10:00 AM 41 °F - 36 °F 75% 29.82 in 16 mi West 22.4 mph - -   Scattered Clouds
10:00 AM 41.0 °F 31.1 °F 35.6 °F 81% 29.80 in 6.2 mi West 23.0 mph - N/A   Mostly Cloudy
10:30 AM 41.0 °F 31.4 °F 35.6 °F 81% 29.83 in 6.2 mi West 21.9 mph - N/A   Mostly Cloudy
11:00 AM 42 °F - 36 °F 70% 29.85 in 16 mi West 24.6 mph - -   Scattered Clouds
11:00 AM 41.0 °F 30.9 °F 35.6 °F 81% 29.83 in 6.2 mi West 24.2 mph - N/A   Mostly Cloudy
11:30 AM 42.8 °F 33.5 °F 35.6 °F 76% 29.83 in 6.2 mi West 23.0 mph - N/A   Mostly Cloudy
12:00 PM 43 °F - 36 °F 68% 29.85 in 16 mi West 22.4 mph - -   Scattered Clouds
12:00 PM 42.8 °F 33.5 °F 35.6 °F 76% 29.83 in 6.2 mi West 23.0 mph - N/A   Mostly Cloudy
12:30 PM 42.8 °F 34.0 °F 35.6 °F 76% 29.83 in 6.2 mi West 20.7 mph - N/A   Mostly Cloudy
1:00 PM 42 °F - 36 °F 70% 29.86 in 25 mi West 24.6 mph - -   Scattered Clouds
1:00 PM 42.8 °F 33.3 °F 35.6 °F 76% 29.83 in 6.2 mi West 24.2 mph - N/A   Scattered Clouds
1:30 PM 42.8 °F 33.8 °F 35.6 °F 76% 29.83 in 6.2 mi West 21.9 mph - N/A   Scattered Clouds
2:00 PM 43 °F - 35 °F 66% 29.87 in 19 mi West 20.1 mph - - Rain Light Rain Showers
2:00 PM 42.8 °F 34.3 °F 35.6 °F 76% 29.86 in 6.2 mi West 19.6 mph - N/A Rain Light Rain Showers
2:30 PM 41.0 °F 31.6 °F 35.6 °F 81% 29.86 in 6.2 mi West 20.7 mph - N/A   Partly Cloudy
3:00 PM 40 °F - 34 °F 72% 29.88 in 19 mi West 22.4 mph - - Rain Light Rain Showers
3:00 PM 41.0 °F 31.6 °F 33.8 °F 76% 29.86 in 6.2 mi West 20.7 mph - N/A   Partly Cloudy
3:30 PM 37.4 °F 26.1 °F 33.8 °F 87% 29.89 in 6.2 mi NW 24.2 mph 38.0 mph N/A Rain Light Rain Showers
4:00 PM 38 °F - 34 °F 81% 29.91 in 19 mi West 13.4 mph - - Rain Light Rain Showers
4:00 PM 37.4 °F 28.9 °F 33.8 °F 87% 29.89 in 6.2 mi West 13.8 mph - N/A   Scattered Clouds
4:30 PM 37.4 °F 27.2 °F 33.8 °F 87% 29.89 in 6.2 mi West 19.6 mph - N/A   Scattered Clouds
5:00 PM 38 °F - 32 °F 73% 29.91 in 19 mi West 17.9 mph - -   Scattered Clouds
5:00 PM 37.4 °F 27.8 °F 32.0 °F 81% 29.89 in 6.2 mi West 17.3 mph - N/A   Partly Cloudy
5:30 PM 37.4 °F 27.5 °F 32.0 °F 81% 29.89 in 6.2 mi West 18.4 mph - N/A   Scattered Clouds
6:00 PM 38 °F - 31 °F 68% 29.94 in 19 mi West 17.9 mph - -   Partly Cloudy
6:00 PM 37.4 °F 27.5 °F 32.0 °F 81% 29.92 in 6.2 mi West 18.4 mph - N/A   Scattered Clouds
6:30 PM 37.4 °F 27.2 °F 30.2 °F 75% 29.92 in 6.2 mi West 19.6 mph - N/A Rain Light Rain Showers
7:00 PM 35.6 °F 24.5 °F 32.0 °F 87% 29.92 in 6.2 mi West 20.7 mph - N/A   Scattered Clouds
7:30 PM 35.6 °F 23.7 °F 30.2 °F 81% 29.92 in 6.2 mi West 24.2 mph 36.8 mph N/A   Scattered Clouds
8:00 PM 35 °F - 31 °F 78% 29.94 in 19 mi West 24.6 mph - - Snow Light Snow Showers
8:00 PM 35.6 °F 23.4 °F 30.2 °F 81% 29.92 in 6.2 mi West 25.3 mph - N/A   Scattered Clouds
8:30 PM 35.6 °F 24.0 °F 30.2 °F 81% 29.92 in 6.2 mi West 23.0 mph - N/A   Scattered Clouds
9:00 PM 35.6 °F 23.7 °F 30.2 °F 81% 29.92 in 6.2 mi West 24.2 mph - N/A   Scattered Clouds
9:30 PM 33.8 °F 22.8 °F 30.2 °F 87% 29.92 in 6.2 mi West 18.4 mph - N/A   Scattered Clouds
10:00 PM 34 °F - 30 °F 80% 29.95 in 19 mi West 20.1 mph - -   Partly Cloudy
10:00 PM 33.8 °F 21.9 °F 30.2 °F 87% 29.92 in 6.2 mi West 21.9 mph - N/A   Scattered Clouds
10:30 PM 33.8 °F 21.9 °F 30.2 °F 87% 29.92 in 6.2 mi West 21.9 mph - N/A Rain Light Rain Showers
11:00 PM 34 °F - 30 °F 80% 29.95 in 19 mi West 24.6 mph - - Rain Light Rain Showers
11:00 PM 33.8 °F 21.6 °F 30.2 °F 87% 29.92 in 6.2 mi West 23.0 mph - N/A   Scattered Clouds
11:30 PM 33.8 °F 21.6 °F 30.2 °F 87% 29.95 in 6.2 mi West 23.0 mph - N/A Rain , Snow Light Rain Showers